Probability
0 0 0 0 0 0 0 0 0 0 0 0 0 0 0 0 0 0 0 0 0 0 0 0 0 0 0 1 2 3 3 5 5 5 5 4 2 1 1 1 0 0 1 0
0 0 0 0 0 0 0 0 0 0 0 0 0 0 0 0 0 0 0 0 0 0 0 0 0 0 0 0 1 2 2 3 5 6 6 5 3 2 2 2 1 1 1 1
0 0 0 0 0 0 0 0 0 0 0 0 0 0 0 0 0 0 0 0 0 0 0 0 0 0 0 0 0 1 1 1 3 6 5 5 4 3 3 4 3 2 2 1
0 0 0 0 0 0 0 0 0 0 0 0 0 0 0 0 0 0 0 0 0 0 0 0 0 0 0 0 0 0 0 0 2 4 5 5 3 2 3 4 4 3 2 2
0 0 0 0 0 0 0 0 0 0 0 0 0 0 0 0 0 0 0 0 0 0 0 0 0 0 0 0 0 0 0 0 1 3 5 4 2 1 3 4 3 3 3 2
0 0 0 0 0 0 0 0 0 0 0 0 0 0 0 0 0 0 0 0 0 0 0 0 0 0 0 0 0 0 0 0 0 1 3 3 1 1 2 3 3 3 3 2
0 0 0 0 0 0 0 0 0 0 0 0 0 0 0 0 0 0 0 0 0 0 0 0 0 0 0 0 0 0 0 0 0 1 2 2 1 1 2 3 3 3 2 1
0 0 0 0 0 0 0 0 0 0 0 0 0 0 0 0 0 0 0 0 0 0 0 0 0 0 0 0 0 0 0 0 1 2 2 1 0 1 2 2 2 2 1 0
0 0 0 0 0 0 0 0 0 0 0 0 0 0 0 0 0 0 0 0 0 0 0 0 0 0 0 0 0 0 0 0 1 2 2 1 0 0 1 1 1 1 0 0
0 0 0 0 0 0 0 0 0 0 0 0 0 0 0 0 0 0 0 0 0 0 0 0 0 0 0 0 0 0 0 0 1 2 1 0 0 0 0 0 0 0 0 0
0 0 0 0 0 0 0 0 0 0 0 0 0 0 0 0 0 0 0 0 0 0 0 0 0 0 0 0 0 0 0 0 1 1 0 0 0 0 0 0 0 0 0 0
0 0 0 0 0 0 0 0 0 0 0 0 0 0 0 0 0 0 0 0 0 0 0 0 0 0 0 0 0 0 0 0 0 0 0 0 0 0 0 0 0 0 0 0
0 0 0 0 0 0 0 0 0 0 0 0 0 0 0 0 0 0 0 0 0 0 0 0 0 0 0 0 0 0 0 0 0 0 0 0 0 0 0 0 0 0 0 0
0 0 0 0 0 0 0 0 0 0 0 0 0 0 0 0 0 0 0 0 0 0 0 0 0 0 0 0 0 0 0 0 0 0 0 0 0 0 0 0 0 0 0 0
0 0 0 0 0 0 0 0 0 0 0 0 0 0 0 0 0 0 0 0 0 0 0 0 0 0 0 0 0 0 0 0 0 0 0 0 0 0 0 0 0 0 0 0
0 0 0 0 0 0 0 0 0 0 0 0 0 0 0 0 0 0 0 0 0 0 0 0 0 0 0 0 0 0 0 0 0 0 0 0 0 0 0 0 0 0 0 0
0 0 0 0 0 0 0 0 0 0 0 0 0 0 0 0 0 0 0 0 0 0 0 0 0 0 0 0 0 0 0 0 0 0 0 0 0 0 0 0 0 0 0 0
0 0 0 0 0 0 0 0 0 0 0 0 0 0 0 0 0 0 0 0 0 0 0 0 0 0 0 0 0 0 0 0 0 0 0 0 0 0 0 0 0 0 0 0
0 0 0 0 0 0 0 0 0 0 0 0 0 0 0 0 0 0 0 0 0 0 0 0 0 0 0 0 0 0 0 0 0 0 0 0 0 0 0 0 0 0 0 0
0 0 0 0 0 0 0 0 0 0 0 0 0 0 0 0 0 0 0 0 0 0 0 0 0 0 0 0 0 0 0 0 0 0 0 0 0 0 0 0 0 0 0 0
0 0 0 0 0 0 0 0 0 0 0 0 0 0 0 0 0 0 0 0 0 0 0 0 0 0 0 0 0 0 0 0 0 0 0 0 0 0 0 0 0 0 0 0
0 0 0 0 0 0 0 0 0 0 0 0 0 0 0 0 0 0 0 0 0 0 0 0 0 0 0 0 0 0 0 0 0 0 0 0 0 0 0 0 0 0 0 0
0 0 0 0 0 0 0 0 0 0 0 0 0 0 0 0 0 0 0 0 0 0 0 0 0 0 0 0 0 0 0 0 0 0 0 0 0 0 0 0 0 0 0 0
0 0 0 0 0 0 0 0 0 0 0 0 0 0 0 0 0 0 0 0 0 0 0 0 0 0 0 0 0 0 0 0 0 0 0 0 0 0 0 0 0 0 0 0
0 0 0 0 0 0 0 0 0 0 0 0 0 0 0 0 0 0 0 0 0 0 0 0 0 0 0 0 0 0 0 0 0 0 0 0 0 0 0 0 0 0 0 0
0 0 0 0 0 0 0 0 0 0 0 0 0 0 0 0 0 0 0 0 0 0 0 0 0 0 0 0 0 0 0 0 0 0 0 0 0 0 0 0 0 0 0 0
0 0 0 0 0 0 0 0 0 0 0 0 0 0 0 0 0 0 0 0 0 0 0 0 0 0 0 0 0 0 0 0 0 0 0 0 0 0 0 0 0 0 0 0
Wind_Speed
13 14 12 14 15 14 15 15 15 16 17 16 14 12 11 10 10 10 9 9 9 9 8 8 7 7 6 5 5 5 7 8 10 11 12 12 13 13 14 14 15 14 14 13
12 13 14 17 19 19 19 18 19 19 20 16 14 12 11 10 10 10 9 9 9 9 8 8 7 7 7 6 5 5 5 7 8 9 9 10 11 11 12 13 13 14 14 13
9 9 11 15 15 17 15 14 14 17 16 12 12 11 10 10 10 9 9 9 9 8 8 8 7 7 7 7 5 5 5 6 6 7 8 9 9 10 11 12 13 13 13 13
7 6 13 8 3 8 11 12 12 12 12 11 11 10 9 8 9 9 9 8 8 8 8 8 8 7 7 7 6 5 5 5 5 6 7 8 9 10 11 10 11 12 12 13
5 9 13 10 7 7 9 10 10 11 11 10 10 9 7 6 7 8 9 8 8 8 8 8 7 7 7 7 6 5 5 5 5 6 7 7 9 10 10 10 10 11 11 12
7 8 10 6 1 3 5 8 6 8 8 7 7 7 6 6 8 9 9 8 8 8 8 7 7 7 6 7 6 6 6 6 6 6 7 8 9 9 9 9 9 9 9 10
12 11 11 6 2 4 7 5 1 5 6 7 8 8 9 9 9 9 9 9 8 8 8 7 7 7 7 7 7 7 6 6 6 6 7 8 7 7 8 8 8 9 9 8
9 11 11 4 6 7 7 4 4 6 7 8 10 10 10 10 9 9 9 9 8 8 8 7 7 7 7 7 7 7 6 6 6 6 5 5 7 7 7 8 9 9 8 8
10 10 6 5 8 7 7 8 8 8 9 9 10 11 10 10 10 9 9 9 8 8 8 8 7 7 8 8 8 7 6 6 5 5 5 6 6 7 7 8 7 7 7 7
11 13 12 11 11 11 10 11 10 10 10 10 11 12 11 10 9 9 9 8 8 8 8 8 8 8 7 8 7 6 6 6 4 4 5 5 5 5 6 7 7 7 7 7
14 14 13 13 13 13 12 12 12 11 11 11 12 12 11 10 10 9 8 8 7 8 9 9 9 9 8 7 6 6 6 5 4 4 4 5 4 4 5 6 6 7 7 7
12 11 11 12 11 11 12 12 12 12 12 11 11 12 11 10 9 9 9 8 8 8 9 9 9 9 8 6 6 5 5 4 3 3 3 3 3 2 2 4 5 6 6 7
16 15 14 15 14 12 12 13 12 12 12 12 11 11 10 10 9 9 9 9 9 9 9 9 9 8 7 6 6 6 5 4 3 3 3 3 3 4 3 3 5 7 8 9
15 13 14 13 13 12 12 12 11 11 11 10 10 9 9 9 9 10 10 9 9 9 9 9 8 8 7 6 6 6 5 4 4 3 3 3 4 4 4 5 5 4 5 9
12 11 12 12 11 10 9 9 9 10 9 9 8 8 8 9 9 9 9 8 9 9 9 8 8 8 6 5 5 5 4 3 3 3 3 3 3 4 4 4 4 4 4 6
9 10 11 11 11 11 9 9 9 10 9 9 8 8 8 8 9 9 9 8 9 9 8 7 8 7 6 5 5 4 4 4 4 3 3 4 4 4 4 5 5 5 5 6
8 9 9 10 10 10 10 9 9 9 9 9 9 9 8 8 8 9 8 8 8 8 8 8 8 7 6 5 5 4 3 3 4 3 3 4 4 4 5 5 5 5 4 5
9 9 9 9 9 9 9 8 8 8 8 9 9 8 8 8 9 9 8 8 7 8 8 7 6 6 6 6 5 4 3 3 3 3 3 3 4 4 5 5 5 6 5 6
6 7 7 7 7 7 7 7 7 8 8 8 8 8 8 8 8 8 8 7 8 8 7 5 6 6 6 6 5 4 3 3 3 3 3 5 4 4 5 5 5 5 5 5
4 4 5 5 5 6 6 7 7 7 7 7 8 8 8 8 8 8 7 8 7 6 6 6 5 5 5 5 5 4 3 3 3 3 3 4 4 5 5 5 5 5 5 5
3 3 4 4 5 6 6 7 7 7 7 7 7 8 8 9 8 7 7 7 7 6 6 7 5 5 4 4 4 3 3 3 3 3 4 4 4 5 5 5 5 5 5 5
3 3 4 4 5 6 6 6 6 7 7 7 7 8 8 8 8 7 7 7 6 7 5 4 4 5 5 5 3 3 3 3 3 3 3 4 4 5 5 5 5 5 5 5
3 4 4 5 5 6 7 6 6 7 7 8 7 8 8 7 6 6 6 5 5 6 5 5 5 6 6 3 3 3 3 4 4 4 4 4 4 5 5 5 5 5 5 5
4 4 5 5 5 6 7 7 6 6 6 7 7 7 7 6 6 5 5 6 7 7 5 4 5 5 5 3 3 3 4 4 4 4 4 4 4 5 5 5 5 5 5 6
4 4 5 5 5 5 6 6 6 6 6 5 7 7 6 5 6 5 5 5 5 6 4 3 4 4 3 3 3 4 4 4 4 4 4 5 5 5 5 5 5 6 6 6
4 5 5 5 5 5 5 5 5 5 5 5 5 5 5 4 5 4 3 3 4 4 3 2 2 3 2 2 3 3 3 4 4 4 5 5 5 5 5 6 7 5 5 6
5 4 4 4 4 4 4 4 5 5 5 5 6 6 5 4 4 3 4 3 2 2 2 2 1 1 1 2 2 3 3 3 4 4 4 5 5 5 6 6 5 5 5 6
Wind_Direction
261 270 267 264 262 254 243 246 255 266 269 277 287 293 297 302 308 312 321 328 331 328 326 325 324 314 304 297 290 270 239 226 224 219 212 210 209 205 202 200 198 196 197 199
266 264 264 265 262 256 251 250 253 262 267 275 283 286 287 296 303 307 315 321 324 323 320 321 322 320 310 301 295 280 253 235 228 220 212 207 206 205 199 198 196 193 194 196
270 278 278 261 253 246 244 243 249 255 264 281 281 280 284 292 298 302 309 316 319 319 317 315 315 313 307 298 290 275 260 245 234 223 213 209 203 201 198 196 193 193 194 194
272 270 248 258 269 252 251 253 250 254 268 279 283 283 285 293 298 301 308 311 312 314 315 312 307 307 304 297 286 273 261 253 240 225 215 208 203 202 199 195 194 193 194 194
246 259 270 270 253 238 243 257 250 253 264 275 283 282 276 291 302 302 303 306 307 310 310 309 307 306 301 293 286 275 261 255 245 228 216 207 203 202 199 193 192 193 192 190
235 250 259 271 230 224 244 258 241 246 259 276 285 275 286 312 310 305 303 304 307 308 308 308 311 311 298 289 283 279 276 266 251 230 219 210 206 202 197 194 192 187 189 189
235 247 261 270 223 186 227 260 213 240 257 271 271 274 295 302 302 304 303 304 307 305 305 307 310 311 300 290 283 284 285 276 255 232 223 214 205 200 194 188 185 184 181 184
220 234 249 203 177 216 253 285 255 260 269 276 279 283 288 294 298 303 303 304 307 304 304 308 308 307 303 296 294 290 282 273 253 233 220 211 200 196 190 183 182 180 176 176
219 235 258 213 221 245 268 269 269 270 275 277 280 281 284 288 293 298 299 299 302 302 302 305 306 303 299 301 303 294 282 269 253 236 216 205 197 191 185 182 181 177 176 176
248 252 256 257 258 263 264 266 271 274 278 278 278 279 282 285 286 289 293 297 299 299 299 302 306 301 296 300 301 290 278 267 247 226 211 201 193 189 186 185 180 176 178 175
248 260 268 259 258 264 269 269 271 275 274 274 276 276 278 281 281 283 286 290 292 290 294 297 302 299 298 300 299 289 278 264 244 224 209 202 196 192 194 197 189 182 182 174
246 253 256 268 271 271 267 267 269 272 274 273 270 272 274 274 275 277 279 283 286 285 287 292 296 295 296 299 293 286 278 268 243 217 204 196 183 167 156 175 164 170 171 169
254 267 268 274 279 274 270 272 272 270 271 273 272 269 270 270 272 272 273 276 279 282 282 286 288 288 293 296 288 276 270 269 257 221 199 187 184 175 157 117 126 144 151 155
253 262 266 267 271 273 273 273 274 273 272 270 270 268 266 267 268 268 269 273 276 278 278 277 280 282 288 292 284 277 273 268 258 228 204 189 183 177 168 163 156 143 142 147
246 248 256 269 273 273 272 271 271 271 272 273 271 265 263 263 266 269 272 275 276 274 272 271 275 279 287 287 278 274 270 261 248 222 205 187 175 169 162 160 157 150 141 141
252 254 256 262 268 272 271 267 267 271 274 276 274 269 267 267 269 273 274 271 270 268 269 270 271 277 282 277 272 268 263 263 248 217 196 181 173 168 164 160 156 157 159 154
249 254 257 263 268 272 271 268 268 271 274 275 279 279 276 274 271 270 272 273 268 267 267 264 268 274 272 264 261 260 259 253 234 213 195 181 172 168 166 163 160 160 161 163
249 256 258 260 265 270 272 272 270 271 273 277 282 278 274 271 272 273 276 278 274 271 264 259 261 265 265 261 258 254 251 241 224 211 193 178 169 165 164 161 158 153 149 148
256 262 265 264 265 266 271 275 275 276 278 279 277 274 273 272 274 277 278 274 269 268 267 263 260 259 259 255 254 253 244 228 215 200 189 173 167 166 164 160 157 153 151 153
268 267 268 271 272 271 273 277 280 279 279 278 275 274 274 274 274 275 275 269 262 264 271 268 263 258 255 249 246 239 227 216 206 190 186 180 171 166 161 158 155 153 154 156
274 274 275 279 283 282 280 280 279 280 283 279 272 272 275 277 276 272 268 270 270 270 270 265 258 254 250 242 234 225 214 207 200 190 185 179 169 162 158 158 157 155 155 153
276 276 280 284 287 291 293 289 283 283 283 281 278 276 275 276 276 271 262 262 271 274 273 264 256 250 249 246 224 216 211 202 195 187 184 178 171 165 163 161 160 158 157 155
276 278 284 287 290 294 297 294 289 285 282 281 280 279 278 276 274 271 274 271 271 271 269 263 257 250 248 238 218 210 206 198 192 188 183 178 174 168 164 163 162 160 158 154
282 286 289 293 294 290 291 294 293 289 286 285 281 279 279 279 277 268 267 277 279 278 272 265 261 252 246 230 215 209 202 195 190 185 178 172 170 166 163 162 160 158 155 155
281 284 284 285 285 283 287 293 294 290 287 284 284 282 276 270 272 278 277 274 275 276 273 269 264 253 240 219 207 202 200 194 187 179 175 170 168 165 163 161 159 158 159 159
279 281 282 282 281 283 285 285 286 288 290 290 291 290 287 282 277 276 278 278 275 275 273 267 255 245 225 206 195 193 188 180 179 178 171 165 164 163 161 160 158 161 161 158
279 282 285 286 285 282 281 280 281 284 284 284 287 289 289 286 281 278 278 276 275 275 272 267 258 234 201 181 173 175 176 174 169 165 163 163 164 162 160 159 160 160 160 158